• In Denmark
  • List of Countries
  • For 7 days
  • Water Temperature
  • Satellite Maps
  • Weather Map
  • Weather Widgets
  • user-avatar
    Login

    Hourly Weather Jerusalem

    Today, 16 July, Monday

    Time Temperature Precipitation Wind Pressure Humidity
    00:00 +25°C° 0 mm 1 mps 689 mmHg 50%
    01:00 +25°C° 0 mm 1 mps 689 mmHg 50%
    02:00 +24°C° 0 mm 1 mps 688 mmHg 53%
    03:00 +24°C° 0 mm 1 mps 688 mmHg 55%
    04:00 +23°C° 0 mm 1 mps 688 mmHg 57%
    05:00 +23°C° 0 mm 1 mps 688 mmHg 59%
    06:00 +24°C° 0 mm 2 mps 689 mmHg 54%
    07:00 +26°C° 0 mm 2 mps 689 mmHg 49%
    08:00 +27°C° 0 mm 2 mps 690 mmHg 43%
    09:00 +28°C° 0 mm 2 mps 690 mmHg 39%
    10:00 +30°C° 0 mm 3 mps 690 mmHg 35%
    11:00 +31°C° 0 mm 3 mps 690 mmHg 31%
    12:00 +32°C° 0 mm 4 mps 690 mmHg 33%
    13:00 +33°C° 0 mm 4 mps 690 mmHg 34%
    14:00 +32°C° 0 mm 4 mps 690 mmHg 38%
    15:00 +32°C° 0 mm 4 mps 690 mmHg 38%
    16:00 +32°C° 0 mm 4 mps 690 mmHg 39%
    17:00 +32°C° 0 mm 4 mps 690 mmHg 39%
    18:00 +29°C° 0 mm 3 mps 690 mmHg 44%
    19:00 +28°C° 0 mm 2 mps 690 mmHg 48%
    20:00 +27°C° 0 mm 2 mps 690 mmHg 53%
    21:00 +27°C° 0 mm 1 mps 690 mmHg 55%
    22:00 +26°C° 0 mm 1 mps 690 mmHg 57%
    23:00 +26°C° 0 mm 1 mps 690 mmHg 59%

    Tomorrow, 17 July, Tuesday

    Time Temperature Precipitation Wind Pressure Humidity
    00:00 +25°C° 0 mm 1 mps 690 mmHg 61%
    01:00 +25°C° 0 mm 1 mps 690 mmHg 63%
    02:00 +24°C° 0 mm 1 mps 690 mmHg 65%
    03:00 +24°C° 0 mm 1 mps 690 mmHg 68%
    04:00 +23°C° 0 mm 1 mps 690 mmHg 71%
    05:00 +23°C° 0 mm 1 mps 690 mmHg 74%
    06:00 +24°C° 0 mm 2 mps 690 mmHg 68%
    07:00 +25°C° 0 mm 2 mps 690 mmHg 62%
    08:00 +26°C° 0 mm 2 mps 691 mmHg 56%
    09:00 +28°C° 0 mm 2 mps 691 mmHg 51%
    10:00 +29°C° 0 mm 3 mps 691 mmHg 45%
    11:00 +30°C° 0 mm 3 mps 691 mmHg 39%
    12:00 +32°C° 0 mm 4 mps 691 mmHg 38%
    13:00 +32°C° 0 mm 4 mps 691 mmHg 36%
    14:00 +33°C° 0 mm 5 mps 691 mmHg 35%
    15:00 +32°C° 0 mm 5 mps 690 mmHg 36%
    16:00 +32°C° 0 mm 5 mps 690 mmHg 36%
    17:00 +30°C° 0 mm 5 mps 690 mmHg 37%
    18:00 +29°C° 0 mm 4 mps 690 mmHg 41%
    19:00 +28°C° 0 mm 3 mps 690 mmHg 45%
    20:00 +27°C° 0 mm 2 mps 690 mmHg 49%
    21:00 +26°C° 0 mm 1 mps 690 mmHg 51%
    22:00 +26°C° 0 mm 1 mps 690 mmHg 53%
    23:00 +25°C° 0 mm 1 mps 690 mmHg 55%

    Day after tomorrow, 18 July, Wednesday

    Time Temperature Precipitation Wind Pressure Humidity
    00:00 +25°C° 0 mm 1 mps 690 mmHg 57%
    01:00 +24°C° 0 mm 1 mps 689 mmHg 58%
    02:00 +24°C° 0 mm 1 mps 689 mmHg 60%
    03:00 +23°C° 0 mm 1 mps 689 mmHg 62%
    04:00 +23°C° 0 mm 1 mps 689 mmHg 65%
    05:00 +22°C° 0 mm 1 mps 689 mmHg 67%
    06:00 +24°C° 0 mm 1 mps 689 mmHg 60%
    07:00 +25°C° 0 mm 2 mps 690 mmHg 53%
    08:00 +26°C° 0 mm 2 mps 690 mmHg 46%
    09:00 +28°C° 0 mm 2 mps 690 mmHg 41%
    10:00 +29°C° 0 mm 3 mps 691 mmHg 35%
    11:00 +31°C° 0 mm 3 mps 691 mmHg 30%
    12:00 +32°C° 0 mm 4 mps 690 mmHg 30%
    13:00 +33°C° 0 mm 4 mps 690 mmHg 30%
    14:00 +34°C° 0 mm 5 mps 690 mmHg 30%
    15:00 +33°C° 0 mm 5 mps 690 mmHg 32%
    16:00 +32°C° 0 mm 5 mps 689 mmHg 35%
    17:00 +30°C° 0 mm 5 mps 689 mmHg 37%
    18:00 +29°C° 0 mm 4 mps 689 mmHg 42%
    19:00 +28°C° 0 mm 3 mps 689 mmHg 48%
    20:00 +27°C° 0 mm 2 mps 689 mmHg 53%
    21:00 +26°C° 0 mm 2 mps 689 mmHg 55%
    22:00 +26°C° 0 mm 1 mps 689 mmHg 57%
    23:00 +25°C° 0 mm 1 mps 689 mmHg 60%

    19 July, Thursday

    Time Temperature Precipitation Wind Pressure Humidity
    00:00 +25°C° 0 mm 1 mps 689 mmHg 61%
    01:00 +24°C° 0 mm 1 mps 689 mmHg 62%
    02:00 +24°C° 0 mm 1 mps 689 mmHg 63%
    03:00 +24°C° 0 mm 1 mps 689 mmHg 65%
    04:00 +23°C° 0 mm 1 mps 689 mmHg 66%
    05:00 +23°C° 0 mm 1 mps 689 mmHg 68%
    06:00 +24°C° 0 mm 1 mps 689 mmHg 62%
    07:00 +25°C° 0 mm 1 mps 690 mmHg 55%
    08:00 +27°C° 0 mm 2 mps 690 mmHg 49%
    09:00 +28°C° 0 mm 2 mps 690 mmHg 44%
    10:00 +30°C° 0 mm 2 mps 691 mmHg 39%
    11:00 +31°C° 0 mm 3 mps 691 mmHg 34%
    12:00 +31°C° 0 mm 3 mps 691 mmHg 35%
    13:00 +33°C° 0 mm 4 mps 690 mmHg 35%
    14:00 +33°C° 0 mm 4 mps 690 mmHg 36%
    15:00 +32°C° 0 mm 4 mps 690 mmHg 38%
    16:00 +32°C° 0 mm 4 mps 690 mmHg 41%
    17:00 +30°C° 0 mm 4 mps 690 mmHg 44%
    18:00 +29°C° 0 mm 4 mps 690 mmHg 47%
    19:00 +27°C° 0 mm 3 mps 690 mmHg 51%
    20:00 +26°C° 0 mm 2 mps 690 mmHg 54%
    21:00 +26°C° 0 mm 2 mps 690 mmHg 55%
    22:00 +25°C° 0 mm 1 mps 690 mmHg 56%
    23:00 +25°C° 0 mm 1 mps 690 mmHg 57%

    20 July, Friday

    Time Temperature Precipitation Wind Pressure Humidity
    00:00 +24°C° 0 mm 1 mps 690 mmHg 59%
    01:00 +24°C° 0 mm 1 mps 690 mmHg 60%
    02:00 +23°C° 0 mm 1 mps 690 mmHg 62%
    03:00 +23°C° 0 mm 1 mps 690 mmHg 64%
    04:00 +23°C° 0 mm 1 mps 690 mmHg 67%
    05:00 +22°C° 0 mm 1 mps 690 mmHg 69%
    06:00 +23°C° 0 mm 2 mps 690 mmHg 64%
    07:00 +24°C° 0 mm 2 mps 691 mmHg 59%
    08:00 +26°C° 0 mm 2 mps 691 mmHg 53%
    09:00 +27°C° 0 mm 3 mps 691 mmHg 47%
    10:00 +28°C° 0 mm 3 mps 691 mmHg 42%
    11:00 +30°C° 0 mm 4 mps 691 mmHg 36%
    12:00 +30°C° 0 mm 4 mps 691 mmHg 36%
    13:00 +32°C° 0 mm 5 mps 691 mmHg 35%
    14:00 +32°C° 0 mm 5 mps 691 mmHg 35%
    15:00 +30°C° 0 mm 5 mps 691 mmHg 38%
    16:00 +29°C° 0 mm 5 mps 691 mmHg 41%
    17:00 +29°C° 0 mm 5 mps 690 mmHg 44%
    18:00 +27°C° 0 mm 4 mps 691 mmHg 49%
    19:00 +26°C° 0 mm 4 mps 691 mmHg 54%
    20:00 +25°C° 0 mm 3 mps 691 mmHg 60%
    21:00 +25°C° 0 mm 3 mps 691 mmHg 62%
    22:00 +24°C° 0 mm 2 mps 691 mmHg 63%
    23:00 +24°C° 0 mm 2 mps 691 mmHg 65%

    21 July, Saturday

    Time Temperature Precipitation Wind Pressure Humidity
    00:00 +24°C° 0 mm 2 mps 690 mmHg 67%
    01:00 +23°C° 0 mm 2 mps 690 mmHg 68%
    02:00 +23°C° 0 mm 2 mps 690 mmHg 70%
    03:00 +23°C° 0 mm 2 mps 690 mmHg 71%
    04:00 +21°C° 0 mm 2 mps 690 mmHg 72%
    05:00 +21°C° 0 mm 2 mps 690 mmHg 73%
    06:00 +23°C° 0 mm 2 mps 690 mmHg 67%
    07:00 +24°C° 0 mm 3 mps 691 mmHg 62%
    08:00 +25°C° 0 mm 3 mps 691 mmHg 56%
    09:00 +26°C° 0 mm 3 mps 691 mmHg 52%
    10:00 +27°C° 0 mm 4 mps 691 mmHg 47%
    11:00 +29°C° 0 mm 4 mps 691 mmHg 43%
    12:00 +29°C° 0 mm 5 mps 691 mmHg 42%
    13:00 +29°C° 0 mm 5 mps 690 mmHg 42%
    14:00 +30°C° 0 mm 6 mps 690 mmHg 42%
    15:00 +29°C° 0 mm 5 mps 690 mmHg 45%
    16:00 +28°C° 0 mm 5 mps 690 mmHg 48%
    17:00 +28°C° 0 mm 5 mps 690 mmHg 52%
    18:00 +27°C° 0 mm 4 mps 690 mmHg 56%
    19:00 +26°C° 0 mm 3 mps 690 mmHg 61%
    20:00 +25°C° 0 mm 3 mps 690 mmHg 66%
    21:00 +24°C° 0 mm 2 mps 690 mmHg 67%
    22:00 +24°C° 0 mm 2 mps 689 mmHg 68%
    23:00 +24°C° 0 mm 2 mps 689 mmHg 70%
    Show more